Location: Unspecified
(0.0000°N, 0.0000°E)
Time: 01:03:54
(UTC+00:00)

deb Explorer IX - Visible Passes

Search period start: 19 April 2019 00:00
Search period end: 29 April 2019 00:00
Orbit: 537 x 1116 km, 38.8° (Epoch: 17 April)

Date Brightness Start Highest point End Pass type
(mag) Time Alt. Az. Time Alt. Az. Time Alt. Az.
24 Apr ? 20:10:39 10° N 20:10:43 10° N 20:10:43 10° N visible
25 Apr ? 19:48:37 10° N 19:50:29 15° NNE 19:50:29 15° NNE visible
26 Apr ? 19:26:37 10° N 19:30:18 18° NE 19:30:18 18° NE visible
27 Apr ? 19:04:37 10° N 19:08:42 19° NE 19:10:10 17° ENE visible
27 Apr ? 20:50:40 10° WNW 20:51:35 15° WNW 20:51:35 15° WNW visible
28 Apr ? 18:42:38 10° NNW 18:47:03 21° NE 18:50:05 14° ENE visible
28 Apr ? 20:28:53 10° WNW 20:31:30 26° WNW 20:31:30 26° WNW visible
